Weather History for KOBE - July, 2012

Change the Weather History Date:

Tuesday, July 17, 2012

  Actual Average Record
Temperature  
Mean Temperature 74 °F -  
Max Temperature 80 °F 90 °F 94 °F (1981)
Min Temperature 68 °F 73 °F 67 °F (1988)
Cooling Degree Days 9    
Growing Degree Days 24 (Base 50)    
Moisture  
Dew Point 67 °F    
Average Humidity 80    
Maximum Humidity 100    
Minimum Humidity 54    
Precipitation  
Precipitation 0.01 in - - ()
Sea Level Pressure  
Sea Level Pressure 30.03 in    
Wind  
Wind Speed 3 mph (SSW)    
Max Wind Speed 10 mph    
Max Gust Speed 17 mph    
Visibility 10 miles    
Events Rain , Thunderstorm    
Averages and records for this station are not official NWS values.
T = Trace of Precipitation, MM = Missing Value Source: NWS Daily Summary

Daily Weather History Graph

Daily Weather History Graph

Search for Another Location

Airport or City:

Trip Planner

Search our weather history database for the weather conditions in past years. The results will help you decide how hot, cold, wet, or windy it might be!

Date:

Astronomy

Jul. 17, 2012 Rise Set
Actual Time 6:39 AM EDT 8:19 PM EDT
Civil Twilight 6:13 AM EDT 8:45 PM EDT
Nautical Twilight 5:42 AM EDT 9:16 PM EDT
Astronomical Twilight 5:10 AM EDT 9:48 PM EDT
Moon 5:14 AM EDT (7/17) 7:09 PM EDT (7/17)
Length of Visible Light 14h 31m
Length of Day
13h 39m
Waning Crescent, 2% of the Moon is Illuminated
Jul 17
Waning Crescent
Jul 19
New
Jul 26
First Quarter
Aug 1
Full
Aug 9
Last Quarter

Hourly Weather History & Observations

Time (EDT) Temp. Heat Index Dew Point Humidity Pressure Visibility Wind Dir Wind Speed Gust Speed Precip Events Conditions
12:15 AM 69.8 °F - 68.0 °F 94% 30.04 in 10.0 mi SSW 3.5 mph - N/A   Overcast
12:35 AM 69.8 °F - 66.2 °F 88% 30.04 in 10.0 mi Calm Calm - N/A   Scattered Clouds
12:55 AM 68.0 °F - 66.2 °F 94% 30.04 in 10.0 mi SW 3.5 mph - N/A   Clear
1:15 AM 68.0 °F - 66.2 °F 94% 30.03 in 10.0 mi Calm Calm - N/A   Clear
1:35 AM 68.0 °F - 68.0 °F 100% 30.03 in 10.0 mi South 3.5 mph - N/A   Clear
1:55 AM 68.0 °F - 66.2 °F 94% 30.03 in 10.0 mi Calm Calm - N/A   Clear
2:15 AM 68.0 °F - 66.2 °F 94% 30.02 in 10.0 mi Calm Calm - N/A   Clear
2:35 AM 68.0 °F - 66.2 °F 94% 30.02 in 10.0 mi Calm Calm - N/A   Scattered Clouds
2:55 AM 68.0 °F - 66.2 °F 94% 30.01 in 10.0 mi Calm Calm - N/A   Scattered Clouds
3:15 AM 68.0 °F - 66.2 °F 94% 30.01 in 10.0 mi South 3.5 mph - N/A   Mostly Cloudy
3:35 AM 68.0 °F - 66.2 °F 94% 30.00 in 10.0 mi SSE 3.5 mph - N/A   Mostly Cloudy
3:55 AM 68.0 °F - 66.2 °F 94% 30.00 in 10.0 mi Calm Calm - N/A   Mostly Cloudy
4:15 AM 68.0 °F - 66.2 °F 94% 30.00 in 10.0 mi Calm Calm - N/A   Overcast
4:35 AM 68.0 °F - 66.2 °F 94% 29.99 in 10.0 mi Calm Calm - N/A   Overcast
4:55 AM 68.0 °F - 66.2 °F 94% 29.99 in 10.0 mi Calm Calm - N/A   Scattered Clouds
5:15 AM 68.0 °F - 66.2 °F 94% 30.00 in 10.0 mi Calm Calm - N/A   Clear
5:35 AM 68.0 °F - 64.4 °F 88% 30.00 in 10.0 mi Calm Calm - N/A   Clear
5:55 AM 68.0 °F - 64.4 °F 88% 30.01 in 10.0 mi Calm Calm - N/A   Clear
6:55 AM 68.0 °F - 64.4 °F 88% 30.02 in 10.0 mi Calm Calm - N/A   Overcast
7:15 AM 68.0 °F - 66.2 °F 94% 30.03 in 10.0 mi Calm Calm - N/A   Mostly Cloudy
7:35 AM 68.0 °F - 66.2 °F 94% 30.03 in 10.0 mi Calm Calm - N/A   Scattered Clouds
7:55 AM 68.0 °F - 66.2 °F 94% 30.03 in 10.0 mi Calm Calm - N/A   Clear
8:15 AM 69.8 °F - 66.2 °F 88% 30.03 in 10.0 mi SSW 4.6 mph - N/A   Clear
8:35 AM 71.6 °F - 66.2 °F 83% 30.03 in 10.0 mi SSW 6.9 mph - N/A   Scattered Clouds
8:55 AM 71.6 °F - 66.2 °F 83% 30.04 in 10.0 mi South 6.9 mph - N/A   Mostly Cloudy
9:15 AM 71.6 °F - 66.2 °F 83% 30.05 in 10.0 mi South 6.9 mph - N/A   Mostly Cloudy
9:35 AM 73.4 °F - 66.2 °F 78% 30.05 in 10.0 mi SSW 6.9 mph - N/A   Overcast
9:55 AM 73.4 °F - 66.2 °F 78% 30.05 in 10.0 mi SSW 9.2 mph - N/A   Mostly Cloudy
10:15 AM 73.4 °F - 66.2 °F 78% 30.05 in 10.0 mi SW 8.1 mph - N/A   Overcast
10:35 AM 75.2 °F - 66.2 °F 73% 30.05 in 10.0 mi SSW 6.9 mph - N/A   Scattered Clouds
10:55 AM 77.0 °F - 64.4 °F 65% 30.05 in 10.0 mi SW 8.1 mph - N/A   Clear
11:15 AM 77.0 °F - 66.2 °F 69% 30.05 in 10.0 mi SW 6.9 mph - N/A   Clear
11:35 AM 77.0 °F - 66.2 °F 69% 30.04 in 10.0 mi SW 10.4 mph - N/A   Mostly Cloudy
11:55 AM 77.0 °F - 68.0 °F 74% 30.04 in 10.0 mi West 6.9 mph - N/A   Mostly Cloudy
12:15 PM 77.0 °F - 68.0 °F 74% 30.04 in 10.0 mi WSW 8.1 mph 16.1 mph N/A Thunderstorm Scattered Clouds
12:35 PM 77.0 °F - 68.0 °F 74% 30.04 in 10.0 mi SW 6.9 mph - N/A   Clear
12:55 PM 77.0 °F - 68.0 °F 74% 30.04 in 10.0 mi West 4.6 mph - N/A   Scattered Clouds
1:15 PM 77.0 °F - 68.0 °F 74% 30.04 in 10.0 mi SW 4.6 mph - N/A Rain Light Rain
1:35 PM 77.0 °F - 68.0 °F 74% 30.03 in 10.0 mi West 3.5 mph - N/A   Scattered Clouds
1:55 PM 78.8 °F - 68.0 °F 69% 30.03 in 10.0 mi SW 6.9 mph - N/A   Mostly Cloudy
2:15 PM 78.8 °F - 66.2 °F 65% 30.03 in 10.0 mi WSW 9.2 mph - N/A   Mostly Cloudy
2:55 PM 80.6 °F 83.2 °F 68.0 °F 65% 30.02 in 10.0 mi SW 10.4 mph - N/A   Scattered Clouds
3:15 PM 78.8 °F - 66.2 °F 65% 30.02 in 10.0 mi WSW 10.4 mph 17.3 mph N/A   Scattered Clouds
3:35 PM 80.6 °F 82.3 °F 64.4 °F 58% 30.02 in 10.0 mi WSW 10.4 mph - N/A   Clear
3:55 PM 80.6 °F 82.3 °F 64.4 °F 58% 30.02 in 10.0 mi SW 10.4 mph 17.3 mph N/A   Scattered Clouds
4:15 PM 80.6 °F 82.3 °F 64.4 °F 58% 30.02 in 10.0 mi WSW 9.2 mph - N/A   Scattered Clouds
4:35 PM 80.6 °F 81.8 °F 62.6 °F 54% 30.02 in 10.0 mi West 9.2 mph - N/A   Scattered Clouds
4:55 PM 80.6 °F 82.3 °F 64.4 °F 58% 30.01 in 10.0 mi WSW 10.4 mph - N/A   Scattered Clouds
5:15 PM 80.6 °F 81.8 °F 62.6 °F 54% 30.00 in 10.0 mi West 5.8 mph 9.2 mph N/A   Clear
5:55 PM 80.6 °F 81.8 °F 62.6 °F 54% 30.00 in 10.0 mi Calm Calm - N/A   Clear
6:15 PM 80.6 °F 81.8 °F 62.6 °F 54% 30.00 in 10.0 mi Calm Calm - N/A   Scattered Clouds
6:35 PM 80.6 °F 81.8 °F 62.6 °F 54% 30.00 in 10.0 mi Calm Calm - N/A   Mostly Cloudy
6:55 PM 80.6 °F 81.8 °F 62.6 °F 54% 29.99 in 10.0 mi SE 4.6 mph - N/A   Scattered Clouds
7:15 PM 80.6 °F 82.3 °F 64.4 °F 58% 30.00 in 10.0 mi ESE 6.9 mph - N/A   Clear
7:35 PM 78.8 °F - 66.2 °F 65% 30.00 in 10.0 mi SSE 5.8 mph - N/A   Clear
7:55 PM 78.8 °F - 68.0 °F 69% 30.01 in 10.0 mi SSE 6.9 mph - N/A   Scattered Clouds
8:15 PM 78.8 °F - 68.0 °F 69% 30.02 in 10.0 mi South 4.6 mph - N/A   Mostly Cloudy
8:35 PM 77.0 °F - 68.0 °F 74% 30.02 in 10.0 mi SSE 4.6 mph - N/A   Scattered Clouds
9:15 PM 73.4 °F - 71.6 °F 94% 30.04 in 7.0 mi SSW 6.9 mph - 0.01 in Rain Light Rain
9:35 PM 73.4 °F - 71.6 °F 94% 30.05 in 10.0 mi WSW 3.5 mph - 0.01 in   Scattered Clouds
9:55 PM 73.4 °F - 71.6 °F 94% 30.05 in 10.0 mi Calm Calm - 0.01 in   Clear
10:15 PM 73.4 °F - 69.8 °F 88% 30.05 in 10.0 mi SSW 3.5 mph - N/A   Clear
10:35 PM 71.6 °F - 69.8 °F 94% 30.05 in 10.0 mi Calm Calm - N/A   Clear
10:55 PM 71.6 °F - 69.8 °F 94% 30.06 in 10.0 mi South 3.5 mph - N/A   Clear
11:15 PM 71.6 °F - 69.8 °F 94% 30.06 in 10.0 mi Calm Calm - N/A   Clear
11:35 PM 71.6 °F - 69.8 °F 94% 30.06 in 10.0 mi Calm Calm - N/A   Clear
11:55 PM 71.6 °F - 69.8 °F 94% 30.06 in 10.0 mi Calm Calm - N/A   Clear